When you browse on this site, cookies collect data to enhance your experience and personalize the content and advertising you see.
Visit our Privacy Policy to learn more. By continuing to use the site, you agree to this use of cookies and data.
  • In Czech Republic
  • List of Countries
  • For 7 days
  • Water Temperature
  • Weather Map
  • Weather Widgets
  • user-avatar
    Login

    Hourly Weather West Carson

    Today, 13 December, Friday

    Time Temperature Precipitation Wind Pressure Humidity
    00:00 +17°C° 0 mm 0 mps 764 mmHg 63%
    01:00 +17°C° 0 mm 0 mps 763 mmHg 63%
    02:00 +17°C° 0 mm 0 mps 763 mmHg 63%
    03:00 +17°C° 0 mm 0 mps 763 mmHg 63%
    04:00 +17°C° 0 mm 0 mps 763 mmHg 63%
    05:00 +17°C° 0 mm 0 mps 763 mmHg 63%
    06:00 +16°C° 0 mm 0 mps 763 mmHg 63%
    07:00 +16°C° 0 mm 0 mps 763 mmHg 63%
    08:00 +17°C° 0 mm 0 mps 763 mmHg 60%
    09:00 +18°C° 0 mm 0 mps 763 mmHg 57%
    10:00 +19°C° 0 mm 0 mps 763 mmHg 54%
    11:00 +19°C° 0 mm 0 mps 762 mmHg 52%
    12:00 +20°C° 0 mm 0 mps 761 mmHg 50%
    13:00 +23°C° 0 mm 1 mps 761 mmHg 47%
    14:00 +22°C° 0 mm 1 mps 760 mmHg 49%
    15:00 +21°C° 0 mm 2 mps 760 mmHg 51%
    16:00 +21°C° 0 mm 2 mps 760 mmHg 53%
    17:00 +20°C° 0 mm 2 mps 760 mmHg 57%
    18:00 +21°C° 0 mm 1 mps 760 mmHg 62%
    19:00 +20°C° 0 mm 1 mps 760 mmHg 66%
    20:00 +20°C° 0 mm 1 mps 760 mmHg 68%
    21:00 +20°C° 0 mm 1 mps 760 mmHg 69%
    22:00 +17°C° 0 mm 0 mps 761 mmHg 71%
    23:00 +19°C° 0 mm 1 mps 760 mmHg 72%

    Tomorrow, 14 December, Saturday

    Time Temperature Precipitation Wind Pressure Humidity
    00:00 +19°C° 0 mm 1 mps 759 mmHg 74%
    01:00 +19°C° 0 mm 1 mps 759 mmHg 75%
    02:00 +18°C° 0 mm 1 mps 759 mmHg 76%
    03:00 +18°C° 0 mm 1 mps 758 mmHg 77%
    04:00 +18°C° 0 mm 1 mps 758 mmHg 78%
    05:00 +18°C° 0 mm 1 mps 758 mmHg 79%
    06:00 +18°C° 0 mm 1 mps 758 mmHg 80%
    07:00 +18°C° 0 mm 1 mps 758 mmHg 80%
    08:00 +17°C° 0 mm 2 mps 758 mmHg 78%
    09:00 +18°C° 0 mm 2 mps 758 mmHg 75%
    10:00 +18°C° 0 mm 2 mps 758 mmHg 73%
    11:00 +19°C° 0 mm 3 mps 758 mmHg 70%
    12:00 +19°C° 0 mm 3 mps 757 mmHg 68%
    13:00 +19°C° 0 mm 4 mps 757 mmHg 66%
    14:00 +19°C° 0 mm 6 mps 757 mmHg 63%
    15:00 +18°C° 0 mm 7 mps 756 mmHg 60%
    16:00 +18°C° 0 mm 9 mps 756 mmHg 56%
    17:00 +17°C° 0 mm 8 mps 756 mmHg 56%
    18:00 +16°C° 0 mm 7 mps 757 mmHg 56%
    19:00 +16°C° 0 mm 7 mps 757 mmHg 57%
    20:00 +16°C° 0 mm 6 mps 757 mmHg 57%
    21:00 +16°C° 0 mm 5 mps 757 mmHg 58%
    22:00 +17°C° 0 mm 3 mps 757 mmHg 58%
    23:00 +16°C° 0 mm 3 mps 757 mmHg 59%

    Day after tomorrow, 15 December, Sunday

    Time Temperature Precipitation Wind Pressure Humidity
    00:00 +16°C° 0 mm 3 mps 758 mmHg 59%
    01:00 +16°C° 0 mm 3 mps 758 mmHg 60%
    02:00 +14°C° 0 mm 3 mps 758 mmHg 59%
    03:00 +14°C° 0 mm 3 mps 758 mmHg 58%
    04:00 +14°C° 0 mm 3 mps 758 mmHg 57%
    05:00 +14°C° 0 mm 3 mps 759 mmHg 52%
    06:00 +13°C° 0 mm 4 mps 759 mmHg 47%
    07:00 +13°C° 0 mm 4 mps 759 mmHg 43%
    08:00 +14°C° 0 mm 5 mps 760 mmHg 40%
    09:00 +14°C° 0 mm 5 mps 760 mmHg 38%
    10:00 +15°C° 0 mm 6 mps 760 mmHg 35%
    11:00 +16°C° 0 mm 6 mps 760 mmHg 34%
    12:00 +16°C° 0 mm 5 mps 760 mmHg 32%
    13:00 +17°C° 0 mm 5 mps 759 mmHg 31%
    14:00 +17°C° 0 mm 5 mps 760 mmHg 31%
    15:00 +17°C° 0 mm 5 mps 760 mmHg 31%
    16:00 +17°C° 0 mm 5 mps 760 mmHg 31%
    17:00 +17°C° 0 mm 5 mps 760 mmHg 33%
    18:00 +17°C° 0 mm 4 mps 760 mmHg 34%
    19:00 +17°C° 0 mm 4 mps 761 mmHg 35%
    20:00 +17°C° 0 mm 3 mps 761 mmHg 36%
    21:00 +16°C° 0 mm 3 mps 761 mmHg 37%
    22:00 +16°C° 0 mm 3 mps 762 mmHg 38%
    23:00 +16°C° 0 mm 3 mps 762 mmHg 37%

    16 December, Monday

    Time Temperature Precipitation Wind Pressure Humidity
    00:00 +14°C° 0 mm 3 mps 762 mmHg 36%
    01:00 +15°C° 0 mm 2 mps 762 mmHg 35%
    02:00 +14°C° 0 mm 3 mps 762 mmHg 35%
    03:00 +14°C° 0 mm 3 mps 762 mmHg 34%
    04:00 +14°C° 0 mm 3 mps 762 mmHg 34%
    05:00 +13°C° 0 mm 3 mps 763 mmHg 32%
    06:00 +13°C° 0 mm 3 mps 763 mmHg 30%
    07:00 +13°C° 0 mm 3 mps 764 mmHg 28%
    08:00 +14°C° 0 mm 3 mps 764 mmHg 26%
    09:00 +16°C° 0 mm 3 mps 764 mmHg 23%
    10:00 +17°C° 0 mm 3 mps 764 mmHg 21%
    11:00 +18°C° 0 mm 2 mps 764 mmHg 20%
    12:00 +19°C° 0 mm 2 mps 763 mmHg 20%
    13:00 +20°C° 0 mm 1 mps 763 mmHg 19%
    14:00 +20°C° 0 mm 1 mps 763 mmHg 20%
    15:00 +20°C° 0 mm 1 mps 763 mmHg 20%
    16:00 +20°C° 0 mm 1 mps 763 mmHg 20%
    17:00 +20°C° 0 mm 1 mps 763 mmHg 20%
    18:00 +18°C° 0 mm 2 mps 764 mmHg 20%
    19:00 +18°C° 0 mm 2 mps 764 mmHg 20%
    20:00 +17°C° 0 mm 3 mps 764 mmHg 20%
    21:00 +17°C° 0 mm 3 mps 764 mmHg 19%
    22:00 +15°C° 0 mm 4 mps 765 mmHg 19%
    23:00 +15°C° 0 mm 4 mps 764 mmHg 18%

    17 December, Tuesday

    Time Temperature Precipitation Wind Pressure Humidity
    00:00 +15°C° 0 mm 4 mps 764 mmHg 18%
    01:00 +14°C° 0 mm 4 mps 764 mmHg 17%
    02:00 +14°C° 0 mm 4 mps 764 mmHg 17%
    03:00 +14°C° 0 mm 3 mps 764 mmHg 17%
    04:00 +14°C° 0 mm 3 mps 764 mmHg 17%
    05:00 +13°C° 0 mm 3 mps 764 mmHg 18%
    06:00 +13°C° 0 mm 4 mps 764 mmHg 18%
    07:00 +13°C° 0 mm 4 mps 764 mmHg 18%
    08:00 +14°C° 0 mm 4 mps 764 mmHg 17%
    09:00 +14°C° 0 mm 4 mps 764 mmHg 16%
    10:00 +15°C° 0 mm 4 mps 764 mmHg 15%
    11:00 +17°C° 0 mm 3 mps 763 mmHg 14%
    12:00 +18°C° 0 mm 3 mps 762 mmHg 14%
    13:00 +19°C° 0 mm 3 mps 762 mmHg 14%
    14:00 +19°C° 0 mm 2 mps 761 mmHg 16%
    15:00 +19°C° 0 mm 2 mps 761 mmHg 17%
    16:00 +18°C° 0 mm 2 mps 761 mmHg 19%
    17:00 +18°C° 0 mm 2 mps 761 mmHg 20%
    18:00 +17°C° 0 mm 2 mps 761 mmHg 21%
    19:00 +17°C° 0 mm 2 mps 762 mmHg 22%
    20:00 +16°C° 0 mm 2 mps 762 mmHg 20%
    21:00 +16°C° 0 mm 2 mps 762 mmHg 19%
    22:00 +14°C° 0 mm 3 mps 762 mmHg 18%
    23:00 +14°C° 0 mm 3 mps 762 mmHg 18%

    18 December, Wednesday

    Time Temperature Precipitation Wind Pressure Humidity
    00:00 +15°C° 0 mm 2 mps 762 mmHg 18%
    01:00 +14°C° 0 mm 2 mps 761 mmHg 18%
    02:00 +14°C° 0 mm 2 mps 761 mmHg 18%
    03:00 +14°C° 0 mm 2 mps 761 mmHg 19%
    04:00 +14°C° 0 mm 2 mps 760 mmHg 19%
    05:00 +14°C° 0 mm 2 mps 760 mmHg 18%
    06:00 +14°C° 0 mm 2 mps 760 mmHg 18%
    07:00 +14°C° 0 mm 2 mps 760 mmHg 17%
    08:00 +14°C° 0 mm 2 mps 760 mmHg 16%
    09:00 +15°C° 0 mm 2 mps 760 mmHg 15%
    10:00 +16°C° 0 mm 2 mps 760 mmHg 14%
    11:00 +17°C° 0 mm 2 mps 760 mmHg 14%
    12:00 +18°C° 0 mm 3 mps 759 mmHg 14%
    13:00 +18°C° 0 mm 3 mps 758 mmHg 14%
    14:00 +18°C° 0 mm 3 mps 758 mmHg 16%
    15:00 +18°C° 0 mm 3 mps 758 mmHg 19%
    16:00 +18°C° 0 mm 3 mps 758 mmHg 21%
    17:00 +18°C° 0 mm 2 mps 758 mmHg 25%
    18:00 +17°C° 0 mm 2 mps 758 mmHg 28%
    19:00 +18°C° 0 mm 1 mps 759 mmHg 32%
    20:00 +18°C° 0 mm 1 mps 759 mmHg 31%
    21:00 +18°C° 0 mm 1 mps 759 mmHg 31%
    22:00 +17°C° 0 mm 2 mps 759 mmHg 30%
    23:00 +17°C° 0.1 mm 2 mps 759 mmHg 31%
    Show more